Location: Cazavet
(43.0017°N, 1.0431°E)
Time: 20:46:43
(UTC+00:00)

Cosmos 1340 Rocket - Pass Details

Date: 18 January 2026
Orbit: 486 x 516 km, 81.2° (Epoch: 10 February)

Event Time Altitude Azimuth Distance (km) Brightness Sun altitude
Rises 06:49:19 0° 174° (S) 2,546 6.6 -6.4°
Reaches altitude 10° 06:51:27 10° 168° (SSE) 1,674 5.8 -6.0°
Maximum altitude 06:54:57 45° 96° (E) 683 4.0 -5.4°
Drops below altitude 10° 06:58:32 10° 23° (NNE) 1,702 5.3 -4.8°
Sets 07:00:43 0° 17° (NNE) 2,596 6.2 -4.5°
